| time (UTC) | temp F | wind direction | speed MPH | gust MPH | rain 1hr in | rain 24hr in | rain mn in | humidity % | barometer mb |
| 20260831014512 | 74 | 229 | 0.0 | 0.0 | 0.00 | 0.00 | 0.00 | 92 | 1019.3 |
| 20260831013011 | 75 | 229 | 0.0 | 0.0 | 0.00 | 0.00 | 0.00 | 91 | 1019.5 |
| 20260831011517 | 75 | 229 | 0.0 | 0.0 | 0.00 | 0.00 | 0.00 | 90 | 1019.5 |
| 20260831010015 | 76 | 229 | 0.0 | 0.0 | 0.00 | 0.00 | 0.00 | 88 | 1019.5 |
| 20260831004518 | 76 | 229 | 0.0 | 2.0 | 0.00 | 0.00 | 0.00 | 87 | 1019.2 |
| 20260831003019 | 76 | 229 | 0.0 | 0.0 | 0.00 | 0.00 | 0.00 | 87 | 1018.8 |
| 20260831001513 | 76 | 229 | 0.0 | 0.0 | 0.00 | 0.00 | 0.00 | 86 | 1018.7 |
| 20260831000018 | 76 | 229 | 0.0 | 0.0 | 0.00 | 0.00 | 0.00 | 86 | 1018.6 |
| 20260830234521 | 76 | 229 | 0.0 | 0.0 | 0.00 | 0.00 | 0.00 | 84 | 1018.7 |
| 20260830233026 | 77 | 229 | 0.0 | 0.0 | 0.00 | 0.00 | 0.00 | 83 | 1018.8 |
| 20260830231516 | 78 | 229 | 0.0 | 0.0 | 0.00 | 0.00 | 0.00 | 81 | 1018.8 |
| 20260830230023 | 79 | 229 | 0.0 | 2.0 | 0.00 | 0.00 | 0.00 | 79 | 1018.8 |
| 20260830224518 | 80 | 195 | 0.0 | 2.0 | 0.00 | 0.00 | 0.00 | 76 | 1018.7 |
| 20260830223018 | 81 | 248 | 0.0 | 3.0 | 0.00 | 0.00 | 0.00 | 74 | 1018.8 |
| 20260830221515 | 81 | 207 | 0.0 | 3.0 | 0.00 | 0.00 | 0.00 | 75 | 1018.8 |
| 20260830220039 | 81 | 206 | 0.0 | 2.0 | 0.00 | 0.00 | 0.00 | 74 | 1018.6 |
| 20260830214521 | 80 | 243 | 1.0 | 3.0 | 0.00 | 0.00 | 0.00 | 74 | 1018.7 |
| 20260830213026 | 81 | 314 | 0.0 | 3.0 | 0.00 | 0.00 | 0.00 | 74 | 1018.6 |
| 20260830211509 | 81 | 114 | 0.0 | 5.0 | 0.00 | 0.00 | 0.00 | 75 | 1018.6 |
| 20260830210017 | 82 | 243 | 1.0 | 7.0 | 0.00 | 0.00 | 0.00 | 72 | 1018.5 |
| 20260830204522 | 81 | 307 | 0.0 | 3.0 | 0.00 | 0.00 | 0.00 | 73 | 1018.6 |
| 20260830203027 | 81 | 250 | 0.0 | 3.0 | 0.00 | 0.00 | 0.00 | 73 | 1018.7 |
| 20260830201524 | 81 | 234 | 1.0 | 6.0 | 0.00 | 0.00 | 0.00 | 72 | 1018.7 |
| 20260830200031 | 81 | 245 | 0.0 | 4.0 | 0.00 | 0.00 | 0.00 | 72 | 1019.0 |
| 20260830194513 | 81 | 134 | 1.0 | 4.0 | 0.00 | 0.00 | 0.00 | 72 | 1019.1 |
| 20260830193013 | 81 | 223 | 0.0 | 5.0 | 0.00 | 0.00 | 0.00 | 71 | 1019.5 |
| 20260830191535 | 81 | 245 | 1.0 | 3.0 | 0.00 | 0.00 | 0.00 | 70 | 1019.5 |
| 20260830190006 | 81 | 349 | 1.0 | 3.0 | 0.00 | 0.00 | 0.00 | 72 | 1019.6 |
| 20260830184527 | 81 | 242 | 0.0 | 4.0 | 0.00 | 0.00 | 0.00 | 72 | 1019.8 |
| 20260830183028 | 81 | 237 | 0.0 | 3.0 | 0.00 | 0.00 | 0.00 | 72 | 1020.2 |
| 20260830181527 | 82 | 295 | 0.0 | 2.0 | 0.00 | 0.00 | 0.00 | 1020.2 | |
| 20260830180033 | 82 | 167 | 1.0 | 2.0 | 0.00 | 0.00 | 0.00 | 73 | 1020.3 |
| 20260830174516 | 80 | 196 | 1.0 | 4.0 | 0.00 | 0.00 | 0.00 | 72 | 1020.5 |
| 20260830173015 | 80 | 68 | 1.0 | 5.0 | 0.00 | 0.00 | 0.00 | 74 | 1020.8 |
| 20260830171511 | 80 | 134 | 1.0 | 4.0 | 0.00 | 0.00 | 0.00 | 72 | 1021.0 |
| 20260830170010 | 81 | 359 | 0.0 | 4.0 | 0.00 | 0.00 | 0.00 | 72 | 1021.1 |
| 20260830164530 | 80 | 282 | 0.0 | 5.0 | 0.00 | 0.00 | 0.00 | 73 | 1021.2 |
| 20260830163038 | 79 | 294 | 0.0 | 3.0 | 0.00 | 0.00 | 0.00 | 76 | 1021.4 |
| 20260830161527 | 77 | 172 | 0.0 | 2.0 | 0.00 | 0.00 | 0.00 | 79 | 1021.7 |
| 20260830160035 | 78 | 175 | 1.0 | 5.0 | 0.00 | 0.00 | 0.00 | 77 | 1021.8 |
| 20260830154525 | 77 | 307 | 1.0 | 4.0 | 0.00 | 0.00 | 0.00 | 77 | 1021.7 |
| 20260830153020 | 78 | 208 | 1.0 | 5.0 | 0.00 | 0.00 | 0.00 | 78 | 1021.7 |
| 20260830151514 | 75 | 44 | 0.0 | 2.0 | 0.00 | 0.00 | 0.00 | 85 | 1021.9 |
| 20260830150040 | 75 | 158 | 2.0 | 5.0 | 0.00 | 0.00 | 0.00 | 84 | 1022.1 |
| 20260830144532 | 75 | 352 | 0.0 | 3.0 | 0.00 | 0.00 | 0.00 | 84 | 1021.9 |
| 20260830143031 | 74 | 335 | 0.0 | 2.0 | 0.00 | 0.00 | 0.00 | 85 | 1022.0 |
| 20260830141528 | 73 | 311 | 0.0 | 5.0 | 0.00 | 0.00 | 0.00 | 87 | 1022.3 |
| 20260830140028 | 71 | 221 | 0.0 | 2.0 | 0.00 | 0.00 | 0.00 | 91 | 1022.5 |
| 20260830134528 | 68 | 266 | 0.0 | 0.0 | 0.00 | 0.00 | 0.00 | 92 | 1022.7 |
| 20260830133023 | 67 | 266 | 0.0 | 0.0 | 0.00 | 0.00 | 0.00 | 91 | 1022.8 |
| 20260830131550 | 67 | 266 | 0.0 | 0.0 | 0.00 | 0.00 | 0.00 | 91 | 1023.0 |
| 20260830130036 | 66 | 266 | 0.0 | 0.0 | 0.00 | 0.00 | 0.00 | 91 | 1023.1 |
| 20260830124530 | 65 | 266 | 0.0 | 0.0 | 0.00 | 0.00 | 0.00 | 92 | 1023.2 |
| 20260830123032 | 65 | 266 | 0.0 | 0.0 | 0.00 | 0.00 | 0.00 | 93 | 1023.4 |
| 20260830121508 | 64 | 266 | 0.0 | 0.0 | 0.00 | 0.00 | 0.00 | 94 | 1023.4 |
| 20260830120006 | 63 | 266 | 0.0 | 0.0 | 0.00 | 0.00 | 0.00 | 94 | 1023.1 |
| 20260830114505 | 62 | 266 | 0.0 | 0.0 | 0.00 | 0.00 | 0.00 | 95 | 1023.0 |
| 20260830113004 | 61 | 266 | 0.0 | 0.0 | 0.00 | 0.00 | 0.00 | 95 | 1023.1 |
| 20260830111504 | 60 | 266 | 0.0 | 0.0 | 0.00 | 0.00 | 0.00 | 95 | 1023.1 |
| 20260830110024 | 60 | 266 | 0.0 | 0.0 | 0.00 | 0.00 | 0.00 | 95 | 1023.1 |
| 20260830104516 | 59 | 266 | 0.0 | 0.0 | 0.00 | 0.00 | 0.00 | 95 | 1023.1 |
| 20260830103014 | 59 | 266 | 0.0 | 0.0 | 0.00 | 0.00 | 0.00 | 95 | 1023.0 |
| 20260830101510 | 58 | 266 | 0.0 | 0.0 | 0.00 | 0.00 | 0.00 | 95 | 1023.0 |
| 20260830100008 | 58 | 266 | 0.0 | 0.0 | 0.00 | 0.00 | 0.00 | 94 | 1023.0 |
| 20260830094504 | 58 | 266 | 0.0 | 0.0 | 0.00 | 0.00 | 0.00 | 94 | 1023.0 |
| 20260830093006 | 58 | 266 | 0.0 | 0.0 | 0.00 | 0.00 | 0.00 | 94 | 1023.1 |
| 20260830091528 | 58 | 266 | 0.0 | 0.0 | 0.00 | 0.00 | 0.00 | 94 | 1022.9 |
| 20260830090028 | 58 | 266 | 0.0 | 0.0 | 0.00 | 0.00 | 0.00 | 94 | 1022.9 |
| 20260830084523 | 58 | 266 | 0.0 | 0.0 | 0.00 | 0.00 | 0.00 | 94 | 1022.9 |
| 20260830083016 | 58 | 266 | 0.0 | 0.0 | 0.00 | 0.00 | 0.00 | 94 | 1023.0 |
| 20260830081529 | 59 | 266 | 0.0 | 0.0 | 0.00 | 0.00 | 0.00 | 94 | 1023.2 |
| 20260830080013 | 58 | 266 | 0.0 | 0.0 | 0.00 | 0.00 | 0.00 | 94 | 1023.5 |
| 20260830074519 | 58 | 266 | 0.0 | 0.0 | 0.00 | 0.00 | 0.00 | 94 | 1023.4 |
| 20260830073005 | 58 | 266 | 0.0 | 0.0 | 0.00 | 0.00 | 0.00 | 94 | 1023.4 |
| 20260830071528 | 58 | 266 | 0.0 | 0.0 | 0.00 | 0.00 | 0.00 | 94 | 1023.4 |
| 20260830070032 | 58 | 266 | 0.0 | 0.0 | 0.00 | 0.00 | 0.00 | 94 | 1023.5 |
| 20260830064524 | 58 | 266 | 0.0 | 0.0 | 0.00 | 0.00 | 0.00 | 94 | 1023.6 |
| 20260830063025 | 58 | 266 | 0.0 | 0.0 | 0.00 | 0.00 | 0.00 | 94 | 1023.6 |
| 20260830061519 | 58 | 266 | 0.0 | 0.0 | 0.00 | 0.00 | 0.00 | 93 | 1023.7 |
| 20260830060037 | 58 | 266 | 0.0 | 0.0 | 0.00 | 0.00 | 0.00 | 93 | 1023.6 |
| 20260830054510 | 58 | 266 | 0.0 | 0.0 | 0.00 | 0.00 | 0.00 | 93 | 1023.6 |
| 20260830053032 | 58 | 266 | 0.0 | 0.0 | 0.00 | 0.00 | 0.00 | 93 | 1023.8 |
| 20260830051537 | 59 | 266 | 0.0 | 0.0 | 0.00 | 0.00 | 0.00 | 93 | 1023.7 |
| 20260830050028 | 59 | 266 | 0.0 | 0.0 | 0.00 | 0.00 | 0.00 | 93 | 1023.6 |
| 20260830044539 | 59 | 266 | 0.0 | 0.0 | 0.00 | 0.00 | 0.00 | 93 | 1023.5 |
| 20260830043024 | 59 | 266 | 0.0 | 0.0 | 0.00 | 0.00 | 0.00 | 92 | 1023.5 |
| 20260830041542 | 59 | 266 | 0.0 | 0.0 | 0.00 | 0.00 | 0.00 | 92 | 1023.4 |
| 20260830040016 | 60 | 266 | 0.0 | 0.0 | 0.00 | 0.00 | 0.00 | 91 | 1023.3 |
| 20260830034532 | 60 | 266 | 0.0 | 0.0 | 0.00 | 0.00 | 0.00 | 91 | 1023.2 |
| 20260830033038 | 60 | 266 | 0.0 | 0.0 | 0.00 | 0.00 | 0.00 | 91 | 1023.1 |
| 20260830031535 | 60 | 266 | 0.0 | 0.0 | 0.00 | 0.00 | 0.00 | 90 | 1023.2 |
| 20260830030039 | 61 | 266 | 0.0 | 0.0 | 0.00 | 0.00 | 0.00 | 89 | 1023.2 |
| 20260830024532 | 61 | 266 | 0.0 | 0.0 | 0.00 | 0.00 | 0.00 | 88 | 1023.2 |
| 20260830023027 | 62 | 266 | 0.0 | 0.0 | 0.00 | 0.00 | 0.00 | 88 | 1023.2 |
| 20260830021526 | 62 | 266 | 0.0 | 0.0 | 0.00 | 0.00 | 0.00 | 87 | 1023.1 |
| 20260830020030 | 62 | 266 | 0.0 | 0.0 | 0.00 | 0.00 | 0.00 | 85 | 1023.2 |